Regional Weather Roundup
Issued by NWS

Home | Current Version | Previous Version | Graphics & Text | Print | Product List | Glossary On
Versions: 1 2 3 4 5 6 7 8 9 10 11 12 13 14 15 16 17 18 19 20 21 22 23 24 25 26 27 28 29 30 31 32 33 34 35 36 37 38 39 40 41 42 43 44 45 46 47 48 49 50
000
ASUS45 KABQ 031701
RWRNM
WEATHER ROUNDUP FOR NEW MEXICO
NATIONAL WEATHER SERVICE ALBUQUERQUE NM
1100 AM MDT SUN MAY 03 2015

NOTE: "FAIR" MEANS FEW OR NO CLOUDS BELOW 12,000 FEET AGL WITH NO
       SIGNIFICANT WEATHER OR OBSTRUCTIONS TO VISION.

      THIS PRODUCT IS RELEASED AS TWO VERSIONS.  ONE VERSION NEAR
      THE TOP OF THE HOUR CONTAINING PRELIMINARY DATA FROM ALBUQUERQUE
      AND OTHER STATIONS.  A FINAL VERSION WITH ADDITIONAL DATA IS
      ISSUED ABOUT 10 MINUTES AFTER THE HOUR.

NMZ501-503-504-510>518-031800-
NORTHWEST PLATEAU/NORTHCENTRAL MOUNTAINS

CITY           SKY/WX    TMP DP  RH WIND       PRES   REMARKS
FARMINGTON     MOSUNNY   65  37  35 E8        30.07F
SANTA FE       MOSUNNY   64  33  31 CALM      30.10F
TAOS           PTSUNNY   61  34  36 S5        30.15S

$$
NMZ402-403-502-505>509-031800-
WESTCENTRAL MOUNTAINS/SOUTHWEST MOUNTAINS

CITY           SKY/WX    TMP DP  RH WIND       PRES   REMARKS
GALLUP         SUNNY     64  36  35 VRB6      30.12S
GRANTS         LGT RAIN  65  33  31 W3        30.14R
SILVER CITY      N/A     72  32  23 NW7       30.09F

$$
NMZ407-409-411-412-031800-
SOUTHERN DESERTS

CITY           SKY/WX    TMP DP  RH WIND       PRES   REMARKS
DEMING         SUNNY     76  37  24 NW8       30.02F
ALAMOGORDO     SUNNY     79  32  18 W7        30.00S
T OR C         SUNNY     77  33  20 VRB3      30.02F

$$
NMZ519>523-031800-
CENTRAL VALLEYS/CENTRAL HIGHLANDS

CITY           SKY/WX    TMP DP  RH WIND       PRES   REMARKS
ALBUQUERQUE    MOSUNNY   69  36  29 CALM      30.07F
DOUBLE EAGLE   MOSUNNY   70  36  28 VRB6      30.09F
CLINES CORNERS PTSUNNY   66  30  26 NW12G20   30.12S
BELEN          NOT AVBL
SOCORRO        NOT AVBL

$$
NMZ524>526-539-540-031800-
SOUTHCENTRAL MOUNTAINS

CITY           SKY/WX    TMP DP  RH WIND       PRES   REMARKS
RUIDOSO        NOT AVBL

$$
NMZ527>531-031800-
NORTHEAST HIGHLANDS/NORTHEAST PLAINS

CITY           SKY/WX    TMP DP  RH WIND       PRES   REMARKS
LAS VEGAS      PTSUNNY   66  33  29 SW12      30.10S
RATON          PTSUNNY   67  32  27 MISG      30.05R
CLAYTON        MOSUNNY   79  35  20 W10       29.97S

$$
NMZ532>537-031800-
EASTCENTRAL PLAINS

CITY           SKY/WX    TMP DP  RH WIND       PRES   REMARKS
TUCUMCARI      MOSUNNY   77  45  32 W7        29.95S
CANNON AFB     NOT AVBL
CLOVIS AIRPORT PTSUNNY   73  46  38 W10G16    29.98S

$$
NMZ028-029-538-031800-
SOUTHEAST PLAINS

CITY           SKY/WX    TMP DP  RH WIND       PRES   REMARKS
ROSWELL        PTSUNNY   74  45  35 NW9       29.95F
CARLSBAD       MOSUNNY   77  47  34 VRB6      29.95F
HOBBS          SUNNY     73  48  40 S8        30.00R


$$



USA.gov is the U.S. government's official web portal to all federal, state and local government web resources and services.